Location: Ferchesar
(52.6477°N, 12.4298°E)
Time: 16:41:39
(UTC+01:00)

Vanguard 1 - Pass Details

Date: 15 December 2021
Orbit: 652 x 3830 km, 34.2° (Epoch: 22 January)

Event Time Altitude Azimuth Distance (km) Brightness Sun altitude
Rises 02:58:01 0° 274° (W) 7,542 - -46.1°
Reaches altitude 10° 03:03:54 10° 265° (W) 6,763 - -45.3°
Maximum altitude 03:21:31 30° 216° (SW) 5,344 - -42.8°
Exits shadow 03:27:42 26° 193° (SSW) 5,373 13.5 -41.9°
Drops below altitude 10° 03:37:30 10° 165° (SSE) 6,078 14.0 -40.5°
Sets 03:42:29 0° 155° (SSE) 6,696 14.4 -39.8°
